This demonstration page uses our WeatherBlox Daily Observations layout. Learn more.

Left ArrowRight Arrow

39.01783, -85.05884

Hourly Observations for May 2, 2018

Temp ( °F °C ) Dew Point ( °F °C ) Humidity (%) Winds ( mph kmh ) Pressure ( in mb ) Visibility ( mi km ) Precip ( " mm )
12:52 am 00:52 Mostly Cloudy 62 16.7 42 5.6 48 48 S 6 9 30.10 1019 10 16 0.00 0.00
1:52 am 01:52 Mostly Cloudy 61 16.1 43 6.1 52 52 SSW 7 11 30.10 1019 10 16 0.00 0.00
2:52 am 02:52 Mostly Cloudy 62 16.7 44 6.7 52 52 SSW 8 13 30.08 1019 10 16 0.00 0.00
3:52 am 03:52 Cloudy 60 15.6 46 7.8 60 60 S 9 15 30.08 1019 10 16 0.00 0.00
4:52 am 04:52 Cloudy 61 16.1 47 8.3 60 60 S 8 13 30.09 1019 10 16 0.00 0.00
5:52 am 05:52 Cloudy 62 16.7 47 8.3 58 58 S 10 17 30.09 1019 10 16 0.00 0.00
6:52 am 06:52 Mostly Cloudy 62 16.7 49 9.4 62 62 S 9 15 30.11 1020 10 16 0.00 0.00
7:52 am 07:52 Mostly Cloudy 64 17.8 50 10 60 60 SSW 9 15 30.14 1021 10 16 0.00 0.00
8:52 am 08:52 Mostly Cloudy 66 18.9 52 11.1 61 61 SSW 9 15 30.15 1021 10 16 0.00 0.00
9:52 am 09:52 Mostly Cloudy 71 21.7 55 12.8 57 57 SW 14 22 30.14 1021 10 16 0.00 0.00
10:52 am 10:52 Mostly Cloudy 75 23.9 57 13.9 54 54 SW 9 15 30.13 1020 10 16 0.00 0.00
11:52 am 11:52 Mostly Cloudy 78 25.6 59 15 52 52 SW 12 19 30.12 1020 10 16 0.00 0.00
12:52 pm 12:52 Mostly Cloudy 78 25.6 59 15 52 52 SW 13 20 30.12 1020 10 16 0.00 0.00
1:52 pm 13:52 Partly Cloudy 81 27.2 58 14.4 45 45 SW 16 26 30.10 1019 10 16 0.00 0.00
2:52 pm 14:52 Partly Cloudy 82 27.8 60 15.6 47 47 SSW 14 22 30.08 1019 10 16 0.00 0.00
3:52 pm 15:52 Mostly Cloudy 81 27.2 57 13.9 44 44 SSW 17 28 30.06 1018 10 16 0.00 0.00
4:52 pm 16:52 Mostly Cloudy 81 27.2 57 13.9 44 44 SSW 16 26 30.05 1018 10 16 0.00 0.00
5:52 pm 17:52 Mostly Cloudy 81 27.2 58 14.4 45 45 SSW 13 20 30.05 1018 10 16 0.00 0.00
6:52 pm 18:52 Mostly Cloudy 80 26.7 58 14.4 47 47 SSW 10 17 30.04 1017 10 16 0.00 0.00
7:52 pm 19:52 Mostly Cloudy 78 25.6 59 15 52 52 S 9 15 30.03 1017 10 16 0.00 0.00
8:52 pm 20:52 Mostly Clear 76 24.4 58 14.4 54 54 S 12 19 30.02 1017 10 16 0.00 0.00
9:52 pm 21:52 Clear 75 23.9 59 15 58 58 S 13 20 30.01 1016 10 16 0.00 0.00
10:52 pm 22:52 Mostly Cloudy 74 23.3 58 14.4 57 57 SSW 12 19 30.03 1017 10 16 0.00 0.00
11:52 pm 23:52 Cloudy 74 23.3 58 14.4 57 57 SSW 10 17 30.03 1017 10 16 0.00 0.00

Powered by AerisWeather